| time (UTC) | temp F | wind direction | speed MPH | gust MPH | rain 1hr in | rain 24hr in | rain mn in | humidity % | barometer mb |
| 20260831024334 | 93 | 0 | 2.0 | 4.0 | 0.00 | 0.00 | 0.00 | ||
| 20260831023825 | 94 | 0 | 3.0 | 6.0 | 0.00 | 0.00 | 0.00 | ||
| 20260831023325 | 94 | 0 | 3.0 | 6.0 | 0.00 | 0.00 | 0.00 | ||
| 20260831022329 | 94 | 353 | 4.0 | 6.0 | 0.00 | 0.00 | 0.00 | ||
| 20260831021830 | 94 | 0 | 3.0 | 5.0 | 0.00 | 0.00 | 0.00 | ||
| 20260831021332 | 94 | 354 | 2.0 | 7.0 | 0.00 | 0.00 | 0.00 | ||
| 20260831020826 | 95 | 0 | 2.0 | 8.0 | 0.00 | 0.00 | 0.00 | ||
| 20260831020326 | 95 | 0 | 3.0 | 7.0 | 0.00 | 0.00 | 0.00 | ||
| 20260831015329 | 95 | 0 | 3.0 | 7.0 | 0.00 | 0.00 | 0.00 | ||
| 20260831014831 | 95 | 353 | 4.0 | 7.0 | 0.00 | 0.00 | 0.00 | ||
| 20260831014334 | 96 | 0 | 4.0 | 7.0 | 0.00 | 0.00 | 0.00 | ||
| 20260831013824 | 96 | 0 | 4.0 | 6.0 | 0.00 | 0.00 | 0.00 | ||
| 20260831013326 | 96 | 0 | 3.0 | 7.0 | 0.00 | 0.00 | 0.00 | ||
| 20260831012337 | 96 | 0 | 3.0 | 9.0 | 0.00 | 0.00 | 0.00 | ||
| 20260831011835 | 96 | 0 | 2.0 | 7.0 | 0.00 | 0.00 | 0.00 | ||
| 20260831010830 | 96 | 0 | 5.0 | 11.0 | 0.00 | 0.00 | 0.00 | ||
| 20260831010329 | 96 | 0 | 4.0 | 10.0 | 0.00 | 0.00 | 0.00 | ||
| 20260831005828 | 97 | 359 | 5.0 | 13.0 | 0.00 | 0.00 | 0.00 | ||
| 20260831005330 | 96 | 358 | 4.0 | 13.0 | 0.00 | 0.00 | 0.00 | ||
| 20260831004831 | 96 | 0 | 5.0 | 10.0 | 0.00 | 0.00 | 0.00 | ||
| 20260831004332 | 97 | 359 | 2.0 | 12.0 | 0.00 | 0.00 | 0.00 | ||
| 20260831003824 | 97 | 0 | 4.0 | 12.0 | 0.00 | 0.00 | 0.00 | ||
| 20260831003325 | 97 | 0 | 3.0 | 9.0 | 0.00 | 0.00 | 0.00 | ||
| 20260831002826 | 97 | 357 | 3.0 | 13.0 | 0.00 | 0.00 | 0.00 | ||
| 20260831002327 | 97 | 0 | 5.0 | 13.0 | 0.00 | 0.00 | 0.00 | ||
| 20260831001826 | 97 | 0 | 5.0 | 9.0 | 0.00 | 0.00 | 0.00 | ||
| 20260831000829 | 97 | 347 | 5.0 | 11.0 | 0.00 | 0.00 | 0.00 | ||
| 20260831000329 | 97 | 355 | 5.0 | 10.0 | 0.00 | 0.00 | 0.00 | ||
| 20260830235830 | 97 | 0 | 5.0 | 10.0 | 0.00 | 0.00 | 0.00 | ||
| 20260830235333 | 97 | 0 | 4.0 | 12.0 | 0.00 | 0.00 | 0.00 | ||
| 20260830234834 | 97 | 0 | 4.0 | 12.0 | 0.00 | 0.00 | 0.00 | ||
| 20260830234335 | 97 | 0 | 5.0 | 8.0 | 0.00 | 0.00 | 0.00 | ||
| 20260830233827 | 97 | 357 | 4.0 | 7.0 | 0.00 | 0.00 | 0.00 | ||
| 20260830233327 | 97 | 0 | 4.0 | 8.0 | 0.00 | 0.00 | 0.00 | ||
| 20260830232830 | 97 | 0 | 5.0 | 12.0 | 0.00 | 0.00 | 0.00 | ||
| 20260830232331 | 97 | 358 | 6.0 | 12.0 | 0.00 | 0.00 | 0.00 | ||
| 20260830231831 | 97 | 0 | 7.0 | 11.0 | 0.00 | 0.00 | 0.00 | ||
| 20260830230827 | 97 | 0 | 5.0 | 14.0 | 0.00 | 0.00 | 0.00 | ||
| 20260830230326 | 97 | 0 | 7.0 | 14.0 | 0.00 | 0.00 | 0.00 | ||
| 20260830225830 | 97 | 359 | 6.0 | 13.0 | 0.00 | 0.00 | 0.00 | ||
| 20260830225333 | 97 | 0 | 8.0 | 13.0 | 0.00 | 0.00 | 0.00 | ||
| 20260830224833 | 97 | 359 | 5.0 | 14.0 | 0.00 | 0.00 | 0.00 | ||
| 20260830224335 | 98 | 359 | 7.0 | 14.0 | 0.00 | 0.00 | 0.00 | ||
| 20260830223828 | 98 | 359 | 6.0 | 14.0 | 0.00 | 0.00 | 0.00 | ||
| 20260830223329 | 98 | 359 | 6.0 | 13.0 | 0.00 | 0.00 | 0.00 | ||
| 20260830222831 | 98 | 0 | 6.0 | 13.0 | 0.00 | 0.00 | 0.00 | ||
| 20260830222332 | 98 | 356 | 5.0 | 13.0 | 0.00 | 0.00 | 0.00 | ||
| 20260830221335 | 98 | 0 | 6.0 | 13.0 | 0.00 | 0.00 | 0.00 | ||
| 20260830220828 | 98 | 0 | 8.0 | 13.0 | 0.00 | 0.00 | 0.00 | ||
| 20260830220329 | 98 | 0 | 6.0 | 13.0 | 0.00 | 0.00 | 0.00 | ||
| 20260830215827 | 98 | 0 | 5.0 | 9.0 | 0.00 | 0.00 | 0.00 | ||
| 20260830215329 | 97 | 359 | 5.0 | 11.0 | 0.00 | 0.00 | 0.00 | ||
| 20260830214835 | 97 | 359 | 5.0 | 12.0 | 0.00 | 0.00 | 0.00 | ||
| 20260830213830 | 97 | 359 | 5.0 | 12.0 | 0.00 | 0.00 | 0.00 | ||
| 20260830213331 | 97 | 0 | 6.0 | 12.0 | 0.00 | 0.00 | 0.00 | ||
| 20260830212834 | 97 | 0 | 5.0 | 12.0 | 0.00 | 0.00 | 0.00 | ||
| 20260830212333 | 97 | 0 | 4.0 | 15.0 | 0.00 | 0.00 | 0.00 | ||
| 20260830211833 | 97 | 359 | 6.0 | 15.0 | 0.00 | 0.00 | 0.00 | ||
| 20260830211335 | 98 | 0 | 6.0 | 11.0 | 0.00 | 0.00 | 0.00 | ||
| 20260830210825 | 98 | 0 | 6.0 | 14.0 | 0.00 | 0.00 | 0.00 | ||
| 20260830205829 | 98 | 358 | 8.0 | 20.0 | 0.00 | 0.00 | 0.00 | ||
| 20260830205329 | 98 | 355 | 8.0 | 17.0 | 0.00 | 0.00 | 0.00 | ||
| 20260830204828 | 98 | 348 | 8.0 | 19.0 | 0.00 | 0.00 | 0.00 | ||
| 20260830204330 | 98 | 358 | 8.0 | 19.0 | 0.00 | 0.00 | 0.00 | ||
| 20260830203824 | 98 | 355 | 9.0 | 18.0 | 0.00 | 0.00 | 0.00 | ||
| 20260830203328 | 98 | 353 | 11.0 | 19.0 | 0.00 | 0.00 | 0.00 | ||
| 20260830202830 | 99 | 356 | 13.0 | 19.0 | 0.00 | 0.00 | 0.00 | ||
| 20260830202329 | 99 | 341 | 8.0 | 18.0 | 0.00 | 0.00 | 0.00 | ||
| 20260830201832 | 99 | 353 | 6.0 | 19.0 | 0.00 | 0.00 | 0.00 | ||
| 20260830201333 | 99 | 334 | 8.0 | 19.0 | 0.00 | 0.00 | 0.00 | ||
| 20260830200828 | 99 | 352 | 10.0 | 17.0 | 0.00 | 0.00 | 0.00 | ||
| 20260830200329 | 99 | 358 | 7.0 | 17.0 | 0.00 | 0.00 | 0.00 | ||
| 20260830195830 | 99 | 346 | 10.0 | 18.0 | 0.00 | 0.00 | 0.00 | ||
| 20260830195330 | 99 | 358 | 10.0 | 18.0 | 0.00 | 0.00 | 0.00 | ||
| 20260830194830 | 99 | 354 | 10.0 | 17.0 | 0.00 | 0.00 | 0.00 | ||
| 20260830194332 | 98 | 338 | 8.0 | 14.0 | 0.00 | 0.00 | 0.00 | ||
| 20260830193824 | 98 | 0 | 8.0 | 14.0 | 0.00 | 0.00 | 0.00 | ||
| 20260830193327 | 98 | 358 | 9.0 | 14.0 | 0.00 | 0.00 | 0.00 | ||
| 20260830192833 | 98 | 357 | 6.0 | 15.0 | 0.00 | 0.00 | 0.00 | ||
| 20260830192335 | 98 | 345 | 7.0 | 17.0 | 0.00 | 0.00 | 0.00 | ||
| 20260830191836 | 98 | 351 | 12.0 | 17.0 | 0.00 | 0.00 | 0.00 | ||
| 20260830190829 | 98 | 356 | 10.0 | 17.0 | 0.00 | 0.00 | 0.00 | ||
| 20260830190330 | 98 | 341 | 6.0 | 14.0 | 0.00 | 0.00 | 0.00 | ||
| 20260830185833 | 97 | 353 | 5.0 | 11.0 | 0.00 | 0.00 | 0.00 | ||
| 20260830185333 | 97 | 359 | 7.0 | 13.0 | 0.00 | 0.00 | 0.00 | ||
| 20260830184834 | 97 | 338 | 8.0 | 13.0 | 0.00 | 0.00 | 0.00 | ||
| 20260830184335 | 97 | 358 | 6.0 | 13.0 | 0.00 | 0.00 | 0.00 | ||
| 20260830183827 | 97 | 359 | 8.0 | 14.0 | 0.00 | 0.00 | 0.00 | ||
| 20260830183329 | 97 | 351 | 8.0 | 13.0 | 0.00 | 0.00 | 0.00 | ||
| 20260830182828 | 97 | 319 | 5.0 | 14.0 | 0.00 | 0.00 | 0.00 | ||
| 20260830182330 | 97 | 347 | 5.0 | 14.0 | 0.00 | 0.00 | 0.00 | ||
| 20260830181835 | 97 | 335 | 5.0 | 13.0 | 0.00 | 0.00 | 0.00 | ||
| 20260830181337 | 96 | 348 | 5.0 | 11.0 | 0.00 | 0.00 | 0.00 | ||
| 20260830180830 | 96 | 349 | 5.0 | 13.0 | 0.00 | 0.00 | 0.00 | ||
| 20260830180332 | 95 | 355 | 6.0 | 13.0 | 0.00 | 0.00 | 0.00 | ||
| 20260830175833 | 95 | 358 | 5.0 | 11.0 | 0.00 | 0.00 | 0.00 | ||
| 20260830174834 | 94 | 359 | 5.0 | 12.0 | 0.00 | 0.00 | 0.00 | ||
| 20260830173334 | 94 | 352 | 6.0 | 13.0 | 0.00 | 0.00 | 0.00 | ||
| 20260830172834 | 94 | 337 | 6.0 | 12.0 | 0.00 | 0.00 | 0.00 | ||
| 20260830172338 | 94 | 355 | 7.0 | 13.0 | 0.00 | 0.00 | 0.00 | ||
| 20260830171819 | 93 | 354 | 5.0 | 13.0 | 0.00 | 0.00 | 0.00 | ||
| 20260830171341 | 93 | 340 | 7.0 | 11.0 | 0.00 | 0.00 | 0.00 | ||
| 20260830170832 | 93 | 359 | 7.0 | 11.0 | 0.00 | 0.00 | 0.00 | ||
| 20260830170332 | 93 | 0 | 5.0 | 12.0 | 0.00 | 0.00 | 0.00 | ||
| 20260830165836 | 92 | 359 | 4.0 | 12.0 | 0.00 | 0.00 | 0.00 | ||
| 20260830164839 | 92 | 357 | 5.0 | 14.0 | 0.00 | 0.00 | 0.00 | ||
| 20260830164339 | 92 | 354 | 8.0 | 14.0 | 0.00 | 0.00 | 0.00 | ||
| 20260830163831 | 92 | 0 | 8.0 | 15.0 | 0.00 | 0.00 | 0.00 | ||
| 20260830163330 | 91 | 356 | 9.0 | 15.0 | 0.00 | 0.00 | 0.00 | ||
| 20260830162833 | 91 | 1 | 7.0 | 12.0 | 0.00 | 0.00 | 0.00 | ||
| 20260830162333 | 90 | 357 | 8.0 | 15.0 | 0.00 | 0.00 | 0.00 | ||
| 20260830161832 | 90 | 344 | 7.0 | 15.0 | 0.00 | 0.00 | 0.00 | ||
| 20260830161333 | 89 | 357 | 7.0 | 15.0 | 0.00 | 0.00 | 0.00 | ||
| 20260830160826 | 89 | 350 | 6.0 | 13.0 | 0.00 | 0.00 | 0.00 | ||
| 20260830160325 | 89 | 351 | 8.0 | 14.0 | 0.00 | 0.00 | 0.00 | ||
| 20260830155825 | 89 | 356 | 4.0 | 14.0 | 0.00 | 0.00 | 0.00 | ||
| 20260830155325 | 89 | 358 | 7.0 | 14.0 | 0.00 | 0.00 | 0.00 | ||
| 20260830154831 | 89 | 357 | 8.0 | 12.0 | 0.00 | 0.00 | 0.00 | ||
| 20260830154335 | 88 | 0 | 7.0 | 14.0 | 0.00 | 0.00 | 0.00 | ||
| 20260830153828 | 88 | 356 | 9.0 | 15.0 | 0.00 | 0.00 | 0.00 | ||
| 20260830153328 | 88 | 352 | 10.0 | 15.0 | 0.00 | 0.00 | 0.00 | ||
| 20260830152828 | 88 | 358 | 8.0 | 17.0 | 0.00 | 0.00 | 0.00 | ||
| 20260830151337 | 88 | 355 | 5.0 | 14.0 | 0.00 | 0.00 | 0.00 | ||
| 20260830150828 | 88 | 359 | 6.0 | 14.0 | 0.00 | 0.00 | 0.00 | ||
| 20260830145833 | 88 | 359 | 8.0 | 15.0 | 0.00 | 0.00 | 0.00 | ||
| 20260830145334 | 88 | 358 | 6.0 | 13.0 | 0.00 | 0.00 | 0.00 | ||
| 20260830144834 | 88 | 359 | 9.0 | 18.0 | 0.00 | 0.00 | 0.00 | ||
| 20260830144339 | 88 | 359 | 11.0 | 18.0 | 0.00 | 0.00 | 0.00 | ||
| 20260830142819 | 87 | 0 | 9.0 | 16.0 | 0.00 | 0.00 | 0.00 | ||
| 20260830142323 | 87 | 0 | 8.0 | 11.0 | 0.00 | 0.00 | 0.00 | ||
| 20260830141822 | 87 | 0 | 6.0 | 11.0 | 0.00 | 0.00 | 0.00 | ||
| 20260830141344 | 87 | 0 | 3.0 | 11.0 | 0.00 | 0.00 | 0.00 | ||
| 20260830140836 | 87 | 357 | 4.0 | 10.0 | 0.00 | 0.00 | 0.00 | ||
| 20260830140337 | 87 | 339 | 3.0 | 10.0 | 0.00 | 0.00 | 0.00 | ||
| 20260830135817 | 87 | 343 | 4.0 | 10.0 | 0.00 | 0.00 | 0.00 | ||
| 20260830135319 | 87 | 358 | 5.0 | 10.0 | 0.00 | 0.00 | 0.00 | ||
| 20260830134819 | 87 | 337 | 5.0 | 12.0 | 0.00 | 0.00 | 0.00 | ||
| 20260830134343 | 87 | 355 | 6.0 | 12.0 | 0.00 | 0.00 | 0.00 | ||
| 20260830133834 | 87 | 357 | 4.0 | 10.0 | 0.00 | 0.00 | 0.00 | ||
| 20260830133335 | 87 | 358 | 6.0 | 10.0 | 0.00 | 0.00 | 0.00 | ||
| 20260830132836 | 87 | 352 | 4.0 | 10.0 | 0.00 | 0.00 | 0.00 | ||
| 20260830132339 | 87 | 347 | 4.0 | 11.0 | 0.00 | 0.00 | 0.00 | ||
| 20260830131830 | 87 | 341 | 6.0 | 13.0 | 0.00 | 0.00 | 0.00 | ||
| 20260830131318 | 87 | 356 | 6.0 | 13.0 | 0.00 | 0.00 | 0.00 | ||
| 20260830130822 | 87 | 355 | 8.0 | 14.0 | 0.00 | 0.00 | 0.00 | ||
| 20260830125328 | 87 | 0 | 4.0 | 13.0 | 0.00 | 0.00 | 0.00 | ||
| 20260830124831 | 87 | 0 | 6.0 | 13.0 | 0.00 | 0.00 | 0.00 | ||
| 20260830124330 | 87 | 0 | 5.0 | 14.0 | 0.00 | 0.00 | 0.00 | ||
| 20260830123823 | 88 | 354 | 7.0 | 13.0 | 0.00 | 0.00 | 0.00 | ||
| 20260830123323 | 88 | 0 | 5.0 | 13.0 | 0.00 | 0.00 | 0.00 | ||
| 20260830122822 | 88 | 359 | 4.0 | 9.0 | 0.00 | 0.00 | 0.00 | ||
| 20260830122323 | 88 | 0 | 5.0 | 11.0 | 0.00 | 0.00 | 0.00 | ||
| 20260830121826 | 88 | 15 | 6.0 | 11.0 | 0.00 | 0.00 | 0.00 | ||
| 20260830121347 | 88 | 351 | 5.0 | 11.0 | 0.00 | 0.00 | 0.00 | ||
| 20260830120818 | 88 | 358 | 5.0 | 10.0 | 0.00 | 0.00 | 0.00 | ||
| 20260830120325 | 88 | 0 | 4.0 | 8.0 | 0.00 | 0.00 | 0.00 | ||
| 20260830115825 | 88 | 357 | 3.0 | 11.0 | 0.00 | 0.00 | 0.00 | ||
| 20260830115324 | 88 | 0 | 4.0 | 11.0 | 0.00 | 0.00 | 0.00 | ||
| 20260830114824 | 88 | 352 | 3.0 | 9.0 | 0.00 | 0.00 | 0.00 | ||
| 20260830114346 | 88 | 356 | 3.0 | 8.0 | 0.00 | 0.00 | 0.00 | ||
| 20260830113319 | 88 | 328 | 5.0 | 7.0 | 0.00 | 0.00 | 0.00 | ||
| 20260830111823 | 88 | 0 | 3.0 | 8.0 | 0.00 | 0.00 | 0.00 | ||
| 20260830111327 | 88 | 0 | 4.0 | 8.0 | 0.00 | 0.00 | 0.00 | ||
| 20260830110819 | 88 | 0 | 3.0 | 7.0 | 0.00 | 0.00 | 0.00 | ||
| 20260830110334 | 89 | 356 | 4.0 | 7.0 | 0.00 | 0.00 | 0.00 | ||
| 20260830105836 | 89 | 0 | 1.0 | 5.0 | 0.00 | 0.00 | 0.00 | ||
| 20260830103837 | 89 | 308 | 1.0 | 5.0 | 0.00 | 0.00 | 0.00 | ||
| 20260830103338 | 89 | 10 | 2.0 | 4.0 | 0.00 | 0.00 | 0.00 | ||
| 20260830102822 | 89 | 0 | 2.0 | 4.0 | 0.00 | 0.00 | 0.00 | ||
| 20260830101822 | 90 | 357 | 1.0 | 3.0 | 0.00 | 0.00 | 0.00 | ||
| 20260830101342 | 90 | 359 | 2.0 | 4.0 | 0.00 | 0.00 | 0.00 | ||
| 20260830100834 | 90 | 0 | 2.0 | 3.0 | 0.00 | 0.00 | 0.00 | ||
| 20260830100335 | 90 | 0 | 1.0 | 6.0 | 0.00 | 0.00 | 0.00 | ||
| 20260830095819 | 90 | 358 | 3.0 | 7.0 | 0.00 | 0.00 | 0.00 | ||
| 20260830095339 | 90 | 0 | 1.0 | 10.0 | 0.00 | 0.00 | 0.00 | ||
| 20260830094840 | 90 | 348 | 5.0 | 10.0 | 0.00 | 0.00 | 0.00 | ||
| 20260830093819 | 90 | 358 | 6.0 | 19.0 | 0.00 | 0.00 | 0.00 | ||
| 20260830093320 | 91 | 0 | 5.0 | 19.0 | 0.00 | 0.00 | 0.00 | ||
| 20260830092824 | 91 | 357 | 5.0 | 14.0 | 0.00 | 0.00 | 0.00 | ||
| 20260830090826 | 91 | 0 | 7.0 | 16.0 | 0.00 | 0.00 | 0.00 | ||
| 20260830090327 | 91 | 359 | 9.0 | 18.0 | 0.00 | 0.00 | 0.00 | ||
| 20260830085832 | 91 | 359 | 4.0 | 18.0 | 0.00 | 0.00 | 0.00 | ||
| 20260830085332 | 91 | 359 | 7.0 | 18.0 | 0.00 | 0.00 | 0.00 | ||
| 20260830084831 | 91 | 350 | 8.0 | 18.0 | 0.00 | 0.00 | 0.00 | ||
| 20260830084332 | 91 | 0 | 7.0 | 13.0 | 0.00 | 0.00 | 0.00 | ||
| 20260830083823 | 91 | 349 | 6.0 | 17.0 | 0.00 | 0.00 | 0.00 | ||
| 20260830083325 | 91 | 355 | 7.0 | 15.0 | 0.00 | 0.00 | 0.00 | ||
| 20260830082827 | 91 | 0 | 6.0 | 13.0 | 0.00 | 0.00 | 0.00 | ||
| 20260830082327 | 92 | 0 | 4.0 | 16.0 | 0.00 | 0.00 | 0.00 | ||
| 20260830081828 | 92 | 0 | 5.0 | 16.0 | 0.00 | 0.00 | 0.00 | ||
| 20260830081331 | 92 | 0 | 4.0 | 13.0 | 0.00 | 0.00 | 0.00 | ||
| 20260830080822 | 92 | 0 | 4.0 | 13.0 | 0.00 | 0.00 | 0.00 | ||
| 20260830080322 | 92 | 0 | 3.0 | 12.0 | 0.00 | 0.00 | 0.00 | ||
| 20260830075823 | 92 | 0 | 4.0 | 8.0 | 0.00 | 0.00 | 0.00 | ||
| 20260830075326 | 92 | 0 | 3.0 | 7.0 | 0.00 | 0.00 | 0.00 | ||
| 20260830074826 | 92 | 0 | 1.0 | 7.0 | 0.00 | 0.00 | 0.00 | ||
| 20260830073819 | 92 | 357 | 5.0 | 14.0 | 0.00 | 0.00 | 0.00 | ||
| 20260830073321 | 92 | 0 | 4.0 | 14.0 | 0.00 | 0.00 | 0.00 | ||
| 20260830072822 | 92 | 357 | 6.0 | 13.0 | 0.00 | 0.00 | 0.00 | ||
| 20260830071824 | 93 | 0 | 4.0 | 10.0 | 0.00 | 0.00 | 0.00 | ||
| 20260830071327 | 93 | 0 | 4.0 | 11.0 | 0.00 | 0.00 | 0.00 | ||
| 20260830070820 | 93 | 0 | 4.0 | 11.0 | 0.00 | 0.00 | 0.00 | ||
| 20260830070320 | 93 | 358 | 4.0 | 9.0 | 0.00 | 0.00 | 0.00 | ||
| 20260830065819 | 93 | 0 | 4.0 | 15.0 | 0.00 | 0.00 | 0.00 | ||
| 20260830065322 | 93 | 0 | 4.0 | 16.0 | 0.00 | 0.00 | 0.00 | ||
| 20260830064823 | 93 | 0 | 5.0 | 16.0 | 0.00 | 0.00 | 0.00 | ||
| 20260830064346 | 93 | 0 | 5.0 | 14.0 | 0.00 | 0.00 | 0.00 | ||
| 20260830063821 | 93 | 0 | 5.0 | 13.0 | 0.00 | 0.00 | 0.00 | ||
| 20260830062827 | 93 | 0 | 3.0 | 14.0 | 0.00 | 0.00 | 0.00 | ||
| 20260830062326 | 93 | 359 | 7.0 | 15.0 | 0.00 | 0.00 | 0.00 | ||
| 20260830061827 | 93 | 354 | 4.0 | 15.0 | 0.00 | 0.00 | 0.00 | ||
| 20260830061330 | 93 | 0 | 3.0 | 15.0 | 0.00 | 0.00 | 0.00 | ||
| 20260830060823 | 93 | 359 | 8.0 | 14.0 | 0.00 | 0.00 | 0.00 | ||
| 20260830060326 | 93 | 358 | 3.0 | 17.0 | 0.00 | 0.00 | 0.00 | ||
| 20260830055825 | 94 | 0 | 8.0 | 17.0 | 0.00 | 0.00 | 0.00 | ||
| 20260830055326 | 94 | 0 | 5.0 | 11.0 | 0.00 | 0.00 | 0.00 | ||
| 20260830054323 | 94 | 359 | 4.0 | 9.0 | 0.00 | 0.00 | 0.00 | ||
| 20260830053828 | 94 | 356 | 1.0 | 9.0 | 0.00 | 0.00 | 0.00 | ||
| 20260830053330 | 94 | 0 | 4.0 | 9.0 | 0.00 | 0.00 | 0.00 | ||
| 20260830052833 | 94 | 0 | 5.0 | 12.0 | 0.00 | 0.00 | 0.00 | ||
| 20260830052337 | 94 | 0 | 2.0 | 13.0 | 0.00 | 0.00 | 0.00 | ||
| 20260830051838 | 94 | 359 | 4.0 | 13.0 | 0.00 | 0.00 | 0.00 | ||
| 20260830051340 | 94 | 358 | 5.0 | 13.0 | 0.00 | 0.00 | 0.00 | ||
| 20260830050831 | 94 | 344 | 4.0 | 11.0 | 0.00 | 0.00 | 0.00 | ||
| 20260830045836 | 95 | 354 | 5.0 | 11.0 | 0.00 | 0.00 | 0.00 | ||
| 20260830045336 | 95 | 0 | 3.0 | 11.0 | 0.00 | 0.00 | 0.00 | ||
| 20260830044340 | 95 | 0 | 3.0 | 14.0 | 0.00 | 0.00 | 0.00 | ||
| 20260830043831 | 95 | 359 | 6.0 | 14.0 | 0.00 | 0.00 | 0.00 | ||
| 20260830043335 | 95 | 359 | 5.0 | 9.0 | 0.00 | 0.00 | 0.00 | ||
| 20260830042337 | 96 | 0 | 4.0 | 10.0 | 0.00 | 0.00 | 0.00 | ||
| 20260830041838 | 96 | 0 | 4.0 | 10.0 | 0.00 | 0.00 | 0.00 | ||
| 20260830041342 | 96 | 0 | 4.0 | 14.0 | 0.00 | 0.00 | 0.00 | ||
| 20260830040834 | 96 | 0 | 5.0 | 16.0 | 0.00 | 0.00 | 0.00 | ||
| 20260830040338 | 96 | 356 | 8.0 | 16.0 | 0.00 | 0.00 | 0.00 | ||
| 20260830035838 | 96 | 0 | 5.0 | 12.0 | 0.00 | 0.00 | 0.00 | ||
| 20260830035338 | 96 | 359 | 5.0 | 10.0 | 0.00 | 0.00 | 0.00 | ||
| 20260830034819 | 97 | 0 | 6.0 | 12.0 | 0.00 | 0.00 | 0.00 | ||
| 20260830034340 | 97 | 0 | 5.0 | 12.0 | 0.00 | 0.00 | 0.00 | ||
| 20260830033834 | 97 | 0 | 7.0 | 11.0 | 0.00 | 0.00 | 0.00 | ||
| 20260830032838 | 97 | 0 | 3.0 | 9.0 | 0.00 | 0.00 | 0.00 | ||
| 20260830032339 | 97 | 359 | 5.0 | 10.0 | 0.00 | 0.00 | 0.00 | ||
| 20260830031820 | 97 | 359 | 4.0 | 10.0 | 0.00 | 0.00 | 0.00 | ||
| 20260830031340 | 98 | 0 | 5.0 | 11.0 | 0.00 | 0.00 | 0.00 | ||
| 20260830030833 | 98 | 0 | 3.0 | 11.0 | 0.00 | 0.00 | 0.00 | ||
| 20260830030333 | 98 | 347 | 4.0 | 9.0 | 0.00 | 0.00 | 0.00 | ||
| 20260830025323 | 98 | 0 | 6.0 | 9.0 | 0.00 | 0.00 | 0.00 | ||
| 20260830024823 | 98 | 0 | 4.0 | 9.0 | 0.00 | 0.00 | 0.00 |